Location: Burleson Alternative School
(32.5290°N, 97.3406°W)
Time: 10:29:25
(UTC+00:00)

Vanguard 2 Rocket - Pass Details

Date: 18 November 2025
Orbit: 553 x 3287 km, 32.9° (Epoch: 07 December)

Event Time Altitude Azimuth Distance (km) Brightness Sun altitude
Rises 01:01:39 0° 269° (W) 2,718 10.9 -19.9°
Reaches altitude 10° 01:03:44 10° 270° (W) 1,829 9.6 -20.3°
Maximum altitude 01:07:41 85° 358° (N) 621 5.9 -21.1°
Enters shadow 01:08:33 57° 80° (E) 750 6.1 -21.3°
